Location: Atherton
(17.2661°S, 145.4859°E)
Time: 05:51:39
(UTC+10:00)

A-11 Canister half - Visible Passes

Search period start: 18 June 2025 00:00
Search period end: 28 June 2025 00:00
Orbit: 1524 x 1684 km, 47.3° (Epoch: 17 June)

Date Brightness Start Highest point End Pass type
(mag) Time Alt. Az. Time Alt. Az. Time Alt. Az.
18 Jun 10.8 04:03:28 13° S 04:06:07 15° SSE 04:11:15 10° SE visible
18 Jun 9.8 06:03:46 10° SSW 06:13:27 50° SE 06:22:47 10° ENE visible
18 Jun 10.2 19:07:26 10° NNE 19:13:54 20° NE 19:16:26 18° ENE visible
18 Jun 9.7 21:08:30 10° NW 21:14:45 47° NW 21:14:45 47° NW visible
19 Jun 10.9 03:43:02 14° SSE 03:44:05 14° SSE 03:48:55 10° SE visible
19 Jun 9.8 05:41:58 10° SSW 05:51:34 47° SE 06:00:50 10° ENE visible
19 Jun 10.4 18:46:07 10° NNE 18:52:06 18° NE 18:56:17 14° E visible
19 Jun 9.2 20:46:41 10° NW 20:54:36 65° NW 20:54:36 65° NW visible
20 Jun 11.0 03:22:38 13° SSE 03:22:38 13° SSE 03:26:32 10° SE visible
20 Jun 9.9 05:20:56 13° SSW 05:29:41 44° SE 05:38:52 10° ENE visible
20 Jun 10.5 18:24:52 10° NNE 18:30:18 16° NE 18:35:48 10° E visible
20 Jun 8.9 20:24:54 10° NW 20:34:28 84° NNE 20:34:28 84° NNE visible
20 Jun 11.3 22:32:31 10° W 22:32:47 11° W 22:32:47 11° W visible
21 Jun 11.1 03:02:17 12° SSE 03:02:17 12° SSE 03:04:08 10° SE visible
21 Jun 9.9 05:00:35 18° SSW 05:07:48 42° SE 05:16:53 10° ENE visible
21 Jun 8.9 20:03:07 10° NW 20:12:49 79° NE 20:14:20 67° ESE visible
21 Jun 11.0 22:10:24 10° W 22:12:40 17° W 22:12:40 17° W visible
22 Jun 10.0 04:40:16 23° SSW 04:45:54 39° SE 04:54:55 10° ENE visible
22 Jun 9.0 19:41:20 10° NW 19:51:00 75° NE 19:54:13 49° ESE visible
22 Jun 10.7 21:48:19 10° W 21:52:32 23° WSW 21:52:32 23° WSW visible
23 Jun 10.0 04:20:00 28° S 04:24:00 37° SE 04:32:54 10° ENE visible
23 Jun 9.3 06:19:30 10° SW 06:29:17 59° NW 06:38:45 10° NNE visible
23 Jun 9.0 19:19:36 10° NNW 19:29:10 70° NE 19:34:05 34° ESE visible
23 Jun 10.3 21:26:15 10° W 21:32:25 29° WSW 21:32:25 29° WSW visible
24 Jun 10.0 03:59:47 32° SSE 04:02:04 35° SE 04:10:52 10° E visible
24 Jun 9.2 05:58:06 12° SW 06:07:28 63° NW 06:17:02 10° NNE visible
24 Jun 9.1 18:57:52 10° NNW 19:07:21 66° NE 19:13:57 24° SE visible
24 Jun 10.1 21:04:12 10° W 21:12:17 34° SW 21:12:17 34° SW visible
25 Jun 10.1 03:39:34 33° SSE 03:40:09 33° SE 03:48:50 10° E visible
25 Jun 9.2 05:37:54 19° SW 05:45:40 67° NW 05:55:19 10° NNE visible
25 Jun 9.2 18:36:09 10° NNW 18:45:33 61° NE 18:53:47 16° SE visible
25 Jun 10.0 20:42:11 10° WNW 20:50:53 36° SW 20:52:06 35° SSW visible
26 Jun 10.3 03:19:24 31° SE 03:19:24 31° SE 03:26:46 10° E visible
26 Jun 9.1 05:17:44 28° SW 05:23:50 72° NW 05:33:34 10° NNE visible
26 Jun 9.3 18:14:27 10° NNW 18:23:45 57° NE 18:33:24 10° SE visible
26 Jun 10.0 20:20:10 10° WNW 20:28:59 38° SW 20:31:55 32° S visible
27 Jun 10.5 02:59:16 26° ESE 02:59:16 26° ESE 03:04:40 10° E visible
27 Jun 9.0 04:57:35 39° SW 05:02:00 77° NW 05:11:48 10° NE visible
27 Jun 9.9 19:58:10 10° WNW 20:07:05 40° SW 20:11:41 27° S visible
